Stündliche Wetter Otoczyn

Heute, 10 April, Samstag

Zeit Temperatur Niederschläge Wind Luftdruck Luftfeuchtigkeit
00:00 +3°C° 0 mm 3 m/S 751 mmHg 80%
01:00 +3°C° 0 mm 3 m/S 751 mmHg 83%
02:00 +2°C° 0 mm 3 m/S 751 mmHg 85%
03:00 +3°C° 0 mm 2 m/S 751 mmHg 87%
04:00 +3°C° 0 mm 2 m/S 751 mmHg 89%
05:00 +3°C° 0 mm 2 m/S 751 mmHg 87%
06:00 +4°C° 0 mm 2 m/S 751 mmHg 84%
07:00 +5°C° 0 mm 2 m/S 752 mmHg 81%
08:00 +6°C° 0.1 mm 2 m/S 752 mmHg 79%
09:00 +7°C° 0.1 mm 2 m/S 752 mmHg 78%
10:00 +8°C° 0.1 mm 2 m/S 753 mmHg 76%
11:00 +7°C° 0.5 mm 2 m/S 753 mmHg 81%
12:00 +6°C° 0.5 mm 2 m/S 753 mmHg 85%
13:00 +7°C° 0.5 mm 1 m/S 754 mmHg 90%
14:00 +6°C° 0.2 mm 2 m/S 754 mmHg 90%
15:00 +6°C° 0.2 mm 2 m/S 754 mmHg 90%
16:00 +5°C° 0.2 mm 2 m/S 754 mmHg 90%
17:00 +5°C° 0 mm 2 m/S 754 mmHg 91%
18:00 +5°C° 0 mm 2 m/S 755 mmHg 91%
19:00 +5°C° 0 mm 2 m/S 755 mmHg 92%
20:00 +5°C° 0 mm 2 m/S 755 mmHg 92%
21:00 +4°C° 0 mm 2 m/S 755 mmHg 92%
22:00 +4°C° 0 mm 2 m/S 756 mmHg 92%
23:00 +4°C° 0 mm 2 m/S 756 mmHg 93%

Morgen, 11 April, Sonntag

Zeit Temperatur Niederschläge Wind Luftdruck Luftfeuchtigkeit
00:00 +4°C° 0 mm 2 m/S 756 mmHg 93%
01:00 +4°C° 0 mm 2 m/S 756 mmHg 93%
02:00 +4°C° 0 mm 2 m/S 756 mmHg 94%
03:00 +5°C° 0 mm 2 m/S 755 mmHg 94%
04:00 +4°C° 0 mm 3 m/S 755 mmHg 95%
05:00 +4°C° 0 mm 3 m/S 755 mmHg 94%
06:00 +5°C° 0 mm 3 m/S 755 mmHg 92%
07:00 +5°C° 0 mm 4 m/S 755 mmHg 91%
08:00 +7°C° 0 mm 4 m/S 754 mmHg 84%
09:00 +9°C° 0 mm 5 m/S 754 mmHg 77%
10:00 +12°C° 0 mm 5 m/S 754 mmHg 70%
11:00 +14°C° 0 mm 6 m/S 754 mmHg 65%
12:00 +15°C° 0 mm 6 m/S 753 mmHg 60%
13:00 +16°C° 0 mm 6 m/S 753 mmHg 55%
14:00 +16°C° 0 mm 6 m/S 753 mmHg 55%
15:00 +16°C° 0 mm 6 m/S 753 mmHg 55%
16:00 +16°C° 0 mm 5 m/S 752 mmHg 55%
17:00 +15°C° 0 mm 5 m/S 753 mmHg 58%
18:00 +14°C° 0 mm 5 m/S 753 mmHg 60%
19:00 +13°C° 0 mm 4 m/S 753 mmHg 63%
20:00 +12°C° 0 mm 4 m/S 753 mmHg 64%
21:00 +11°C° 0 mm 4 m/S 753 mmHg 65%
22:00 +10°C° 0 mm 4 m/S 753 mmHg 67%
23:00 +10°C° 0 mm 4 m/S 753 mmHg 70%

übermorgen, 12 April, Montag

Zeit Temperatur Niederschläge Wind Luftdruck Luftfeuchtigkeit
00:00 +10°C° 0 mm 4 m/S 753 mmHg 74%
01:00 +8°C° 0 mm 4 m/S 753 mmHg 78%
02:00 +8°C° 0 mm 4 m/S 753 mmHg 81%
03:00 +8°C° 0 mm 4 m/S 753 mmHg 83%
04:00 +8°C° 0 mm 4 m/S 752 mmHg 85%
05:00 +8°C° 0 mm 4 m/S 752 mmHg 86%
06:00 +10°C° 0 mm 4 m/S 752 mmHg 86%
07:00 +10°C° 0 mm 4 m/S 752 mmHg 87%
08:00 +11°C° 0 mm 4 m/S 752 mmHg 80%
09:00 +12°C° 0 mm 4 m/S 752 mmHg 73%
10:00 +14°C° 0 mm 4 m/S 753 mmHg 66%
11:00 +14°C° 0 mm 4 m/S 753 mmHg 66%
12:00 +13°C° 0 mm 3 m/S 753 mmHg 67%
13:00 +13°C° 0 mm 3 m/S 753 mmHg 67%
14:00 +12°C° 0 mm 4 m/S 753 mmHg 72%
15:00 +10°C° 0 mm 4 m/S 753 mmHg 78%
16:00 +8°C° 0 mm 5 m/S 754 mmHg 83%
17:00 +6°C° 0 mm 5 m/S 754 mmHg 82%
18:00 +5°C° 0 mm 5 m/S 755 mmHg 81%
19:00 +3°C° 0 mm 5 m/S 756 mmHg 80%
20:00 +3°C° 0 mm 5 m/S 756 mmHg 80%
21:00 +3°C° 0 mm 5 m/S 756 mmHg 80%
22:00 +3°C° 0 mm 4 m/S 756 mmHg 81%
23:00 +2°C° 0.1 mm 5 m/S 757 mmHg 81%

13 April, Dienstag

Zeit Temperatur Niederschläge Wind Luftdruck Luftfeuchtigkeit
00:00 +2°C° 0.1 mm 5 m/S 757 mmHg 80%
01:00 +2°C° 0.1 mm 5 m/S 757 mmHg 80%
02:00 +1°C° 0.1 mm 4 m/S 757 mmHg 80%
03:00 +1°C° 0.1 mm 4 m/S 757 mmHg 81%
04:00 +1°C° 0.1 mm 4 m/S 757 mmHg 81%
05:00 +1°C° 0.1 mm 4 m/S 757 mmHg 79%
06:00 +1°C° 0.1 mm 4 m/S 757 mmHg 78%
07:00 +1°C° 0.1 mm 4 m/S 758 mmHg 77%
08:00 +2°C° 0.1 mm 3 m/S 758 mmHg 74%
09:00 +3°C° 0.1 mm 3 m/S 758 mmHg 71%
10:00 +4°C° 0.1 mm 3 m/S 758 mmHg 68%
11:00 +4°C° 0.2 mm 3 m/S 758 mmHg 67%
12:00 +4°C° 0.2 mm 3 m/S 758 mmHg 66%
13:00 +5°C° 0.2 mm 3 m/S 758 mmHg 65%
14:00 +5°C° 0 mm 3 m/S 758 mmHg 62%
15:00 +6°C° 0 mm 4 m/S 758 mmHg 59%
16:00 +6°C° 0 mm 4 m/S 758 mmHg 56%
17:00 +5°C° 0 mm 4 m/S 758 mmHg 64%
18:00 +3°C° 0 mm 3 m/S 758 mmHg 72%
19:00 +2°C° 0 mm 3 m/S 758 mmHg 80%
20:00 +2°C° 0 mm 3 m/S 759 mmHg 81%
21:00 +2°C° 0 mm 2 m/S 759 mmHg 83%
22:00 +1°C° 0 mm 2 m/S 759 mmHg 85%
23:00 +1°C° 0 mm 2 m/S 758 mmHg 84%

14 April, Mittwoch

Zeit Temperatur Niederschläge Wind Luftdruck Luftfeuchtigkeit
00:00 +1°C° 0 mm 2 m/S 758 mmHg 82%
01:00 +1°C° 0 mm 2 m/S 758 mmHg 81%
02:00 +1°C° 0 mm 2 m/S 758 mmHg 81%
03:00 +1°C° 0 mm 2 m/S 758 mmHg 81%
04:00 +1°C° 0 mm 3 m/S 758 mmHg 80%
05:00 +1°C° 0 mm 3 m/S 758 mmHg 81%
06:00 +2°C° 0 mm 3 m/S 758 mmHg 81%
07:00 +2°C° 0 mm 3 m/S 758 mmHg 81%
08:00 +3°C° 0 mm 4 m/S 758 mmHg 73%
09:00 +3°C° 0 mm 5 m/S 758 mmHg 65%
10:00 +4°C° 0 mm 6 m/S 758 mmHg 57%
11:00 +4°C° 0 mm 6 m/S 758 mmHg 55%
12:00 +5°C° 0 mm 6 m/S 758 mmHg 53%
13:00 +5°C° 0 mm 7 m/S 758 mmHg 51%
14:00 +5°C° 0 mm 7 m/S 758 mmHg 54%
15:00 +4°C° 0 mm 7 m/S 758 mmHg 57%
16:00 +3°C° 0 mm 7 m/S 758 mmHg 61%
17:00 +2°C° 0 mm 6 m/S 758 mmHg 66%
18:00 +1°C° 0 mm 6 m/S 758 mmHg 71%
19:00 +1°C° 0 mm 6 m/S 758 mmHg 76%
20:00 -1°C° 0 mm 6 m/S 758 mmHg 76%
21:00 -1°C° 0 mm 6 m/S 758 mmHg 76%
22:00 -1°C° 0 mm 6 m/S 758 mmHg 77%
23:00 -1°C° 0 mm 6 m/S 758 mmHg 76%

15 April, Donnerstag

Zeit Temperatur Niederschläge Wind Luftdruck Luftfeuchtigkeit
00:00 -1°C° 0 mm 6 m/S 758 mmHg 75%
01:00 -1°C° 0 mm 6 m/S 758 mmHg 74%
02:00 -1°C° 0 mm 6 m/S 758 mmHg 75%
03:00 -1°C° 0 mm 7 m/S 758 mmHg 76%
04:00 -1°C° 0 mm 7 m/S 757 mmHg 77%
05:00 -1°C° 0 mm 7 m/S 757 mmHg 75%
06:00 -1°C° 0 mm 7 m/S 758 mmHg 73%
07:00 0°C° 0 mm 7 m/S 758 mmHg 71%
08:00 0°C° 0.1 mm 7 m/S 758 mmHg 72%
09:00 0°C° 0.1 mm 8 m/S 758 mmHg 73%
10:00 +1°C° 0.1 mm 8 m/S 758 mmHg 75%
11:00 +1°C° 0.2 mm 8 m/S 758 mmHg 75%
12:00 +1°C° 0.2 mm 8 m/S 758 mmHg 75%
13:00 +1°C° 0.2 mm 8 m/S 758 mmHg 76%
14:00 +2°C° 0.3 mm 7 m/S 758 mmHg 78%
15:00 +2°C° 0.3 mm 7 m/S 758 mmHg 80%
16:00 +2°C° 0.3 mm 7 m/S 758 mmHg 82%
17:00 +2°C° 0.2 mm 7 m/S 758 mmHg 84%
18:00 0°C° 0.2 mm 7 m/S 758 mmHg 86%
19:00 0°C° 0.2 mm 7 m/S 758 mmHg 88%
20:00 +2°C° 0.1 mm 6 m/S 759 mmHg 86%
21:00 +2°C° 0.1 mm 6 m/S 759 mmHg 83%
22:00 +2°C° 0.1 mm 6 m/S 759 mmHg 81%
23:00 +2°C° 0 mm 6 m/S 759 mmHg 82%
Mehr zeigen

Wir brauchen deine Erlaubnis

Meteoprog und unser Service Anbieter werden persönliche Daten aufbewahren, so wie Cookies, Geräte Bezeichnung oder ähnliche Technologien von deinem Gerät und Prozess, so wie Persönliche Daten Inhalte und Werbungen, genauso wie social Media und den Verkehr zu analysieren.

  • Aufbewahrung und/oder Zugang zu deiner Geräte Informationen.

    Cookies, Geräte Bezeichnung oder andere Informationen, können aufbewahrt oder Zugang zu deinem Gerät erhalten, für den Grund, der oben angegeben wird.

  • Personalisierte Werbung und Inhalte, Messungen, Einblick in das Publikum und Produkt Entwicklung.

    Werbungen und Inhalte können personalisiert werden, basierend auf ein Profil. Mehr Daten können besser personalisierte Werbungen und Inhalte hinzufügen. Werbung und Inhalte können gezeigt und gemessen werden. Einblicke über das Publikum, welche die Werbung gesehen haben und den Inhalt, können abgeleitet werden. So wie Daten können genutzt werden, um es zu verbessern oder die Benutzer Erfahrung zu verbessern das System und die Software.

Wenn du “Ich stimme zu” klickst, erlaubst du uns, die Cookies zu benutzen die Geräte Bezeichnung, den Web oder ähnliche Technologien zu benutzen. Deine Settings, können in deinem Gerät bei deinem Browser geändert werden.

Für den bestimmten Zweck, berechtigten Interessen beruhen darauf, mehr als auf den Inhalt. Du kannst mehr darüber in unseren Privaten und Cookie Politik lesen.